Year,Month,Day,Hour,Minute,Value (Times are PST for temperature in C)
2020,10,27,00,00,5.70
2020,10,27,00,01,5.70
2020,10,27,00,02,5.70
2020,10,27,00,03,5.70
2020,10,27,00,04,5.70
2020,10,27,00,05,5.70
2020,10,27,00,06,5.70
2020,10,27,00,07,5.70
2020,10,27,00,08,5.70
2020,10,27,00,09,5.70
2020,10,27,00,10,5.70
2020,10,27,00,11,5.70
2020,10,27,00,12,5.70
2020,10,27,00,13,5.70
2020,10,27,00,14,5.70
2020,10,27,00,15,5.70
2020,10,27,00,16,5.70
2020,10,27,00,17,5.70
2020,10,27,00,18,5.70
2020,10,27,00,19,5.70
2020,10,27,00,20,5.70
2020,10,27,00,21,5.70
2020,10,27,00,22,5.70
2020,10,27,00,23,5.70
2020,10,27,00,24,5.70
2020,10,27,00,25,5.80
2020,10,27,00,26,5.80
2020,10,27,00,27,5.80
2020,10,27,00,28,5.80
2020,10,27,00,29,5.80
2020,10,27,00,30,5.80
2020,10,27,00,31,5.80
2020,10,27,00,32,5.80
2020,10,27,00,33,5.80
2020,10,27,00,34,5.80
2020,10,27,00,35,5.80
2020,10,27,00,36,5.80
2020,10,27,00,37,5.80
2020,10,27,00,38,5.80
2020,10,27,00,39,5.80
2020,10,27,00,40,5.80
2020,10,27,00,41,5.80
2020,10,27,00,42,5.80
2020,10,27,00,43,5.90
2020,10,27,00,44,5.90
2020,10,27,00,45,5.80
2020,10,27,00,46,5.90
2020,10,27,00,47,5.90
2020,10,27,00,48,5.90
2020,10,27,00,49,5.90
2020,10,27,00,50,5.90
2020,10,27,00,51,5.90
2020,10,27,00,52,5.90
2020,10,27,00,53,5.90
2020,10,27,00,54,5.90
2020,10,27,00,55,5.90
2020,10,27,00,56,5.90
2020,10,27,00,57,5.90
2020,10,27,00,58,5.90
2020,10,27,00,59,5.90
2020,10,27,01,00,5.90
2020,10,27,01,01,5.90
2020,10,27,01,02,5.90
2020,10,27,01,03,5.90
2020,10,27,01,04,5.90
2020,10,27,01,05,5.90
2020,10,27,01,06,5.90
2020,10,27,01,07,5.90
2020,10,27,01,08,5.90
2020,10,27,01,09,5.80
2020,10,27,01,10,5.80
2020,10,27,01,11,5.80
2020,10,27,01,12,5.80
2020,10,27,01,13,5.80
2020,10,27,01,14,5.80
2020,10,27,01,15,5.80
2020,10,27,01,16,5.80
2020,10,27,01,17,5.80
2020,10,27,01,18,5.80
2020,10,27,01,19,5.80
2020,10,27,01,20,5.80
2020,10,27,01,21,5.80
2020,10,27,01,22,5.80
2020,10,27,01,23,5.80
2020,10,27,01,24,5.80
2020,10,27,01,25,5.70
2020,10,27,01,26,5.70
2020,10,27,01,27,5.70
2020,10,27,01,28,5.70
2020,10,27,01,29,5.70
2020,10,27,01,30,5.70
2020,10,27,01,31,5.70
2020,10,27,01,32,5.60
2020,10,27,01,33,5.60
2020,10,27,01,34,5.60
2020,10,27,01,35,5.60
2020,10,27,01,36,5.60
2020,10,27,01,37,5.60
2020,10,27,01,38,5.60
2020,10,27,01,39,5.60
2020,10,27,01,40,5.60
2020,10,27,01,41,5.60
2020,10,27,01,42,5.60
2020,10,27,01,43,5.60
2020,10,27,01,44,5.60
2020,10,27,01,45,5.50
2020,10,27,01,46,5.50
2020,10,27,01,47,5.50
2020,10,27,01,48,5.50
2020,10,27,01,49,5.50
2020,10,27,01,50,5.50
2020,10,27,01,51,5.50
2020,10,27,01,52,5.40
2020,10,27,01,53,5.40
2020,10,27,01,54,5.40
2020,10,27,01,55,5.40
2020,10,27,01,56,5.40
2020,10,27,01,57,5.40
2020,10,27,01,58,5.40
2020,10,27,01,59,5.40
2020,10,27,02,00,5.40
2020,10,27,02,01,5.40
2020,10,27,02,02,5.40
2020,10,27,02,03,5.40
2020,10,27,02,04,5.40
2020,10,27,02,05,5.40
2020,10,27,02,06,5.40
2020,10,27,02,07,5.40
2020,10,27,02,08,5.40
2020,10,27,02,09,5.40
2020,10,27,02,10,5.40
2020,10,27,02,11,5.40
2020,10,27,02,12,5.40
2020,10,27,02,13,5.40
2020,10,27,02,14,5.40
2020,10,27,02,15,5.40
2020,10,27,02,16,5.40
2020,10,27,02,17,5.40
2020,10,27,02,18,5.40
2020,10,27,02,19,5.40
2020,10,27,02,20,5.40
2020,10,27,02,21,5.40
2020,10,27,02,22,5.40
2020,10,27,02,23,5.40
2020,10,27,02,24,5.40
2020,10,27,02,25,5.40
2020,10,27,02,26,5.40
2020,10,27,02,27,5.40
2020,10,27,02,28,5.40
2020,10,27,02,29,5.40
2020,10,27,02,30,5.40
2020,10,27,02,31,5.40
2020,10,27,02,32,5.40
2020,10,27,02,33,5.40
2020,10,27,02,34,5.40
2020,10,27,02,35,5.40
2020,10,27,02,36,5.40
2020,10,27,02,37,5.40
2020,10,27,02,38,5.40
2020,10,27,02,39,5.40
2020,10,27,02,40,5.40
2020,10,27,02,41,5.40
2020,10,27,02,42,5.40
2020,10,27,02,43,5.40
2020,10,27,02,44,5.40
2020,10,27,02,45,5.40
2020,10,27,02,46,5.40
2020,10,27,02,47,5.40
2020,10,27,02,48,5.50
2020,10,27,02,49,5.50
2020,10,27,02,50,5.50
2020,10,27,02,51,5.50
2020,10,27,02,52,5.50
2020,10,27,02,53,5.50
2020,10,27,02,54,5.50
2020,10,27,02,55,5.50
2020,10,27,02,56,5.50
2020,10,27,02,57,5.60
2020,10,27,02,58,5.60
2020,10,27,02,59,5.60
2020,10,27,03,00,5.60
2020,10,27,03,01,5.60
2020,10,27,03,02,5.60
2020,10,27,03,03,5.60
2020,10,27,03,04,5.60
2020,10,27,03,05,5.60
2020,10,27,03,06,5.60
2020,10,27,03,07,5.60
2020,10,27,03,08,5.60
2020,10,27,03,09,5.60
2020,10,27,03,10,5.60
2020,10,27,03,11,5.60
2020,10,27,03,12,5.60
2020,10,27,03,13,5.70
2020,10,27,03,14,5.70
2020,10,27,03,15,5.70
2020,10,27,03,16,5.70
2020,10,27,03,17,5.70
2020,10,27,03,18,5.70
2020,10,27,03,19,5.70
2020,10,27,03,20,5.70
2020,10,27,03,21,5.70
2020,10,27,03,22,5.70
2020,10,27,03,23,5.70
2020,10,27,03,24,5.70
2020,10,27,03,25,5.70
2020,10,27,03,26,5.70
2020,10,27,03,27,5.70
2020,10,27,03,28,5.70
2020,10,27,03,29,5.70
2020,10,27,03,30,5.70
2020,10,27,03,31,5.70
2020,10,27,03,32,5.70
2020,10,27,03,33,5.70
2020,10,27,03,34,5.70
2020,10,27,03,35,5.70
2020,10,27,03,36,5.70
2020,10,27,03,37,5.70
2020,10,27,03,38,5.80
2020,10,27,03,39,5.80
2020,10,27,03,40,5.80
2020,10,27,03,41,5.80
2020,10,27,03,42,5.80
2020,10,27,03,43,5.80
2020,10,27,03,44,5.80
2020,10,27,03,45,5.80
2020,10,27,03,46,5.80
2020,10,27,03,47,5.80
2020,10,27,03,48,5.80
2020,10,27,03,49,5.80
2020,10,27,03,50,5.80
2020,10,27,03,51,5.80
2020,10,27,03,52,5.80
2020,10,27,03,53,5.90
2020,10,27,03,54,5.90
2020,10,27,03,55,5.90
2020,10,27,03,56,5.90
2020,10,27,03,57,5.90
2020,10,27,03,58,5.80
2020,10,27,03,59,5.80
2020,10,27,04,00,5.80
2020,10,27,04,01,5.80
2020,10,27,04,02,5.80
2020,10,27,04,03,5.80
2020,10,27,04,04,5.80
2020,10,27,04,05,5.80
2020,10,27,04,06,5.80
2020,10,27,04,07,5.80
2020,10,27,04,08,5.80
2020,10,27,04,09,5.80
2020,10,27,04,10,5.80
2020,10,27,04,11,5.80
2020,10,27,04,12,5.80
2020,10,27,04,13,5.80
2020,10,27,04,14,5.80
2020,10,27,04,15,5.80
2020,10,27,04,16,5.80
2020,10,27,04,17,5.80
2020,10,27,04,18,5.80
2020,10,27,04,19,5.80
2020,10,27,04,20,5.80
2020,10,27,04,21,5.80
2020,10,27,04,22,5.80
2020,10,27,04,23,5.80
2020,10,27,04,24,5.80
2020,10,27,04,25,5.80
2020,10,27,04,26,5.80
2020,10,27,04,27,5.80
2020,10,27,04,28,5.80
2020,10,27,04,29,5.80
2020,10,27,04,30,5.80
2020,10,27,04,31,5.80
2020,10,27,04,32,5.80
2020,10,27,04,33,5.80
2020,10,27,04,34,5.80
2020,10,27,04,35,5.80
2020,10,27,04,36,5.80
2020,10,27,04,37,5.80
2020,10,27,04,38,5.80
2020,10,27,04,39,5.80
2020,10,27,04,40,5.80
2020,10,27,04,41,5.80
2020,10,27,04,42,5.80
2020,10,27,04,43,5.80
2020,10,27,04,44,5.80
2020,10,27,04,45,5.80
2020,10,27,04,46,5.80
2020,10,27,04,47,5.80
2020,10,27,04,48,5.70
2020,10,27,04,49,5.70
2020,10,27,04,50,5.70
2020,10,27,04,51,5.70
2020,10,27,04,52,5.70
2020,10,27,04,53,5.70
2020,10,27,04,54,5.60
2020,10,27,04,55,5.60
2020,10,27,04,56,5.60
2020,10,27,04,57,5.60
2020,10,27,04,58,5.60
2020,10,27,04,59,5.50
2020,10,27,05,00,5.50
2020,10,27,05,01,5.50
2020,10,27,05,02,5.40
2020,10,27,05,03,5.40
2020,10,27,05,04,5.40
2020,10,27,05,05,5.40
2020,10,27,05,06,5.40
2020,10,27,05,07,5.30
2020,10,27,05,08,5.30
2020,10,27,05,09,5.30
2020,10,27,05,10,5.30
2020,10,27,05,11,5.30
2020,10,27,05,12,5.20
2020,10,27,05,13,5.20
2020,10,27,05,14,5.20
2020,10,27,05,15,5.20
2020,10,27,05,16,5.20
2020,10,27,05,17,5.10
2020,10,27,05,18,5.10
2020,10,27,05,19,5.10
2020,10,27,05,20,5.10
2020,10,27,05,21,5.10
2020,10,27,05,22,5.00
2020,10,27,05,23,5.00
2020,10,27,05,24,5.00
2020,10,27,05,25,5.00
2020,10,27,05,26,4.90
2020,10,27,05,27,4.90
2020,10,27,05,28,4.90
2020,10,27,05,29,4.90
2020,10,27,05,30,4.80
2020,10,27,05,31,4.80
2020,10,27,05,32,4.80
2020,10,27,05,33,4.80
2020,10,27,05,34,4.80
2020,10,27,05,35,4.80
2020,10,27,05,36,4.80
2020,10,27,05,37,4.70
2020,10,27,05,38,4.70
2020,10,27,05,39,4.70
2020,10,27,05,40,4.60
2020,10,27,05,41,4.60
2020,10,27,05,42,4.60
2020,10,27,05,43,4.60
2020,10,27,05,44,4.60
2020,10,27,05,45,4.60
2020,10,27,05,46,4.60
2020,10,27,05,47,4.60
2020,10,27,05,48,4.60
2020,10,27,05,49,4.60
2020,10,27,05,50,4.60
2020,10,27,09,48,6.80
2020,10,27,09,49,6.80
2020,10,27,09,50,6.80
2020,10,27,09,51,6.80
2020,10,27,09,52,6.80
2020,10,27,09,53,6.80
2020,10,27,09,54,6.80
2020,10,27,09,55,6.90
2020,10,27,09,56,6.90
2020,10,27,09,57,6.90
2020,10,27,09,58,6.90
2020,10,27,09,59,6.90
2020,10,27,10,00,6.90
2020,10,27,10,01,6.90
2020,10,27,10,02,6.90
2020,10,27,10,03,6.90
2020,10,27,10,04,6.90
2020,10,27,10,05,6.90
2020,10,27,10,06,7.00
2020,10,27,10,07,7.00
2020,10,27,10,08,7.00
2020,10,27,10,09,7.00
2020,10,27,10,10,7.00
2020,10,27,10,11,7.10
2020,10,27,10,12,7.10
2020,10,27,10,13,7.10
2020,10,27,10,14,7.10
2020,10,27,10,15,7.10
2020,10,27,10,16,7.10
2020,10,27,10,17,7.10
2020,10,27,10,18,7.10
2020,10,27,10,19,7.20
2020,10,27,10,20,7.20
2020,10,27,10,21,7.10
2020,10,27,10,22,7.20
2020,10,27,10,23,7.20
2020,10,27,10,24,7.20
2020,10,27,10,25,7.20
2020,10,27,10,26,7.20
2020,10,27,10,27,7.20
2020,10,27,10,28,7.20
2020,10,27,10,29,7.20
2020,10,27,10,30,7.20
2020,10,27,10,31,7.20
2020,10,27,10,32,7.20
2020,10,27,10,33,7.20
2020,10,27,10,34,7.20
2020,10,27,10,35,7.20
2020,10,27,10,36,7.20
2020,10,27,10,37,7.20
2020,10,27,10,38,7.20
2020,10,27,10,39,7.20
2020,10,27,10,40,7.20
2020,10,27,10,41,7.20
2020,10,27,10,42,7.20
2020,10,27,10,43,7.20
2020,10,27,10,44,7.30
2020,10,27,10,45,7.30
2020,10,27,10,46,7.30
2020,10,27,10,47,7.30
2020,10,27,10,48,7.30
2020,10,27,10,49,7.30
2020,10,27,10,50,7.30
2020,10,27,10,51,7.30
2020,10,27,10,52,7.30
2020,10,27,10,53,7.30
2020,10,27,10,54,7.30
2020,10,27,10,55,7.30
2020,10,27,10,56,7.30
2020,10,27,10,57,7.30
2020,10,27,10,58,7.40
2020,10,27,10,59,7.40
2020,10,27,11,00,7.40
2020,10,27,11,01,7.40
2020,10,27,11,02,7.40
2020,10,27,11,03,7.40
2020,10,27,11,04,7.40
2020,10,27,11,05,7.40
2020,10,27,11,06,7.50
2020,10,27,11,07,7.50
2020,10,27,11,08,7.50
2020,10,27,11,09,7.50
2020,10,27,11,10,7.60
2020,10,27,11,11,7.60
2020,10,27,11,12,7.60
2020,10,27,11,13,7.60
2020,10,27,11,14,7.60
2020,10,27,11,15,7.60
2020,10,27,11,16,7.60
2020,10,27,11,17,7.60
2020,10,27,11,18,7.60
2020,10,27,11,19,7.60
2020,10,27,11,20,7.60
2020,10,27,11,21,7.60
2020,10,27,11,22,7.60
2020,10,27,11,23,7.60
2020,10,27,11,24,7.60
2020,10,27,11,25,7.60
2020,10,27,11,26,7.60
2020,10,27,11,27,7.60
2020,10,27,11,28,7.60
2020,10,27,11,29,7.60
2020,10,27,11,30,7.60
2020,10,27,11,31,7.60
2020,10,27,11,32,7.60
2020,10,27,11,33,7.60
2020,10,27,11,34,7.60
2020,10,27,11,35,7.60
2020,10,27,11,36,7.60
2020,10,27,11,37,7.60
2020,10,27,11,38,7.60
2020,10,27,11,39,7.70
2020,10,27,11,40,7.70
2020,10,27,11,41,7.70
2020,10,27,11,42,7.70
2020,10,27,11,43,7.70
2020,10,27,11,44,7.70
2020,10,27,11,45,7.70
2020,10,27,11,46,7.70
2020,10,27,11,47,7.70
2020,10,27,11,48,7.80
2020,10,27,11,49,7.80
2020,10,27,11,50,7.80
2020,10,27,11,51,7.80
2020,10,27,11,52,7.80
2020,10,27,11,53,7.80
2020,10,27,11,54,7.80
2020,10,27,11,55,7.80
2020,10,27,11,56,7.90
2020,10,27,11,57,7.90
2020,10,27,11,58,7.90
2020,10,27,11,59,7.90
2020,10,27,12,00,7.90
2020,10,27,12,01,7.90
2020,10,27,12,02,7.90
2020,10,27,12,03,7.90
2020,10,27,12,04,7.90
2020,10,27,12,05,8.00
2020,10,27,12,06,8.00
2020,10,27,12,07,8.00
2020,10,27,12,08,8.00
2020,10,27,12,09,8.00
2020,10,27,12,10,8.00
2020,10,27,12,11,8.00
2020,10,27,12,12,8.00
2020,10,27,12,13,8.00
2020,10,27,12,14,8.00
2020,10,27,12,15,8.10
2020,10,27,12,16,8.10
2020,10,27,12,17,8.10
2020,10,27,12,18,8.10
2020,10,27,12,19,8.10
2020,10,27,12,20,8.10
2020,10,27,12,21,8.10
2020,10,27,12,22,8.10
2020,10,27,12,23,8.10
2020,10,27,12,24,8.10
2020,10,27,12,25,8.10
2020,10,27,12,26,8.20
2020,10,27,12,27,8.20
2020,10,27,12,28,8.20
2020,10,27,12,29,8.20
2020,10,27,12,30,8.20
2020,10,27,12,31,8.30
2020,10,27,12,32,8.30
2020,10,27,12,33,8.30
2020,10,27,12,34,8.30
2020,10,27,12,35,8.30
2020,10,27,12,36,8.40
2020,10,27,12,37,8.40
2020,10,27,12,38,8.40
2020,10,27,12,39,8.40
2020,10,27,12,40,8.50
2020,10,27,12,41,8.50
2020,10,27,12,42,8.50
2020,10,27,12,43,8.60
2020,10,27,12,44,8.60
2020,10,27,12,45,8.60
2020,10,27,12,46,8.60
2020,10,27,12,47,8.60
2020,10,27,12,48,8.60
2020,10,27,12,49,8.60
2020,10,27,12,50,8.60
2020,10,27,12,51,8.70
2020,10,27,12,52,8.70
2020,10,27,12,53,8.70
2020,10,27,12,54,8.70
2020,10,27,12,55,8.70
2020,10,27,12,56,8.70
2020,10,27,12,57,8.70
2020,10,27,12,58,8.80
2020,10,27,12,59,8.80
2020,10,27,13,00,8.80
2020,10,27,13,01,8.80
2020,10,27,13,02,8.80
2020,10,27,13,03,8.80
2020,10,27,13,04,8.80
2020,10,27,13,05,8.80
2020,10,27,13,06,8.80
2020,10,27,13,07,8.80
2020,10,27,13,08,8.80
2020,10,27,13,09,8.80
2020,10,27,13,10,8.80
2020,10,27,13,11,8.80
2020,10,27,13,12,8.80
2020,10,27,13,13,8.80
2020,10,27,13,14,8.80
2020,10,27,13,15,8.70
2020,10,27,13,16,8.70
2020,10,27,13,17,8.70
2020,10,27,13,18,8.60
2020,10,27,13,19,8.60
2020,10,27,13,20,8.60
2020,10,27,13,21,8.60
2020,10,27,13,22,8.50
2020,10,27,13,23,8.50
2020,10,27,13,24,8.50
2020,10,27,13,25,8.50
2020,10,27,13,26,8.50
2020,10,27,13,27,8.40
2020,10,27,13,28,8.40
2020,10,27,13,29,8.40
2020,10,27,13,30,8.50
2020,10,27,13,31,8.50
2020,10,27,13,32,8.50
2020,10,27,13,33,8.50
2020,10,27,13,34,8.40
2020,10,27,13,35,8.40
2020,10,27,13,36,8.40
2020,10,27,13,37,8.40
2020,10,27,13,38,8.40
2020,10,27,13,39,8.40
2020,10,27,13,40,8.40
2020,10,27,13,41,8.40
2020,10,27,13,42,8.40
2020,10,27,13,43,8.40
2020,10,27,13,44,8.40
2020,10,27,13,45,8.40
2020,10,27,13,46,8.40
2020,10,27,13,47,8.40
2020,10,27,13,48,8.40
2020,10,27,13,49,8.40
2020,10,27,13,50,8.40
2020,10,27,13,51,8.40
2020,10,27,13,52,8.40
2020,10,27,13,53,8.40
2020,10,27,13,54,8.40
2020,10,27,13,55,8.40
2020,10,27,13,56,8.40
2020,10,27,13,57,8.40
2020,10,27,13,58,8.40
2020,10,27,13,59,8.40
2020,10,27,14,00,8.40
2020,10,27,14,01,8.40
2020,10,27,14,02,8.40
2020,10,27,14,03,8.40
2020,10,27,14,04,8.40
2020,10,27,14,05,8.40
2020,10,27,14,06,8.40
2020,10,27,14,07,8.40
2020,10,27,14,08,8.40
2020,10,27,14,09,8.40
2020,10,27,14,10,8.40
2020,10,27,14,11,8.40
2020,10,27,14,12,8.40
2020,10,27,14,13,8.40
2020,10,27,14,14,8.40
2020,10,27,14,15,8.40
2020,10,27,14,16,8.50
2020,10,27,14,17,8.50
2020,10,27,14,18,8.50
2020,10,27,14,19,8.50
2020,10,27,14,20,8.50
2020,10,27,14,21,8.50
2020,10,27,14,22,8.50
2020,10,27,14,23,8.60
2020,10,27,14,24,8.60
2020,10,27,14,25,8.60
2020,10,27,14,26,8.60
2020,10,27,14,27,8.60
2020,10,27,14,28,8.60
2020,10,27,14,29,8.60
2020,10,27,14,30,8.60
2020,10,27,14,31,8.60
2020,10,27,14,32,8.60
2020,10,27,14,33,8.60
2020,10,27,14,34,8.60
2020,10,27,14,35,8.60
2020,10,27,14,36,8.60
2020,10,27,14,37,8.60
2020,10,27,14,38,8.60
2020,10,27,14,39,8.60
2020,10,27,14,40,8.60
2020,10,27,14,41,8.60
2020,10,27,14,42,8.60
2020,10,27,14,43,8.60
2020,10,27,14,44,8.60
2020,10,27,14,45,8.60
2020,10,27,14,46,8.60
2020,10,27,14,47,8.60
2020,10,27,14,48,8.60
2020,10,27,14,49,8.60
2020,10,27,14,50,8.60
2020,10,27,14,51,8.60
2020,10,27,14,52,8.60
2020,10,27,14,53,8.60
2020,10,27,14,54,8.60
2020,10,27,14,55,8.60
2020,10,27,14,56,8.60
2020,10,27,14,57,8.60
2020,10,27,14,58,8.60
2020,10,27,14,59,8.60
2020,10,27,15,00,8.60
2020,10,27,15,01,8.60
2020,10,27,15,02,8.60
2020,10,27,15,03,8.60
2020,10,27,15,04,8.60
2020,10,27,15,05,8.60
2020,10,27,15,06,8.60
2020,10,27,15,07,8.60
2020,10,27,15,08,8.60
2020,10,27,15,09,8.60
2020,10,27,15,10,8.60
2020,10,27,15,11,8.60
2020,10,27,15,12,8.60
2020,10,27,15,13,8.60
2020,10,27,15,14,8.60
2020,10,27,15,15,8.60
2020,10,27,15,16,8.60
2020,10,27,15,17,8.60
2020,10,27,15,18,8.60
2020,10,27,15,19,8.60
2020,10,27,15,20,8.60
2020,10,27,15,21,8.60
2020,10,27,15,22,8.60
2020,10,27,15,23,8.50
2020,10,27,15,24,8.50
2020,10,27,15,25,8.50
2020,10,27,15,26,8.50
2020,10,27,15,27,8.50
2020,10,27,15,28,8.40
2020,10,27,15,29,8.40
2020,10,27,15,30,8.40
2020,10,27,15,31,8.40
2020,10,27,15,32,8.40
2020,10,27,15,33,8.40
2020,10,27,15,34,8.40
2020,10,27,15,35,8.40
2020,10,27,15,36,8.40
2020,10,27,15,37,8.40
2020,10,27,15,38,8.40
2020,10,27,15,39,8.40
2020,10,27,15,40,8.40
2020,10,27,15,41,8.30
2020,10,27,15,42,8.30
2020,10,27,15,43,8.30
2020,10,27,15,44,8.40
2020,10,27,15,45,8.40
2020,10,27,15,46,8.40
2020,10,27,15,47,8.40
2020,10,27,15,48,8.40
2020,10,27,15,49,8.40
2020,10,27,15,50,8.40
2020,10,27,15,51,8.40
2020,10,27,15,52,8.40
2020,10,27,15,53,8.40
2020,10,27,15,54,8.40
2020,10,27,15,55,8.40
2020,10,27,15,56,8.40
2020,10,27,15,57,8.40
2020,10,27,15,58,8.40
2020,10,27,15,59,8.40
2020,10,27,16,00,8.40
2020,10,27,16,01,8.40
2020,10,27,16,02,8.40
2020,10,27,16,03,8.40
2020,10,27,16,04,8.40
2020,10,27,16,05,8.40
2020,10,27,16,06,8.40
2020,10,27,16,07,8.40
2020,10,27,16,08,8.40
2020,10,27,16,09,8.40
2020,10,27,16,10,8.40
2020,10,27,16,11,8.40
2020,10,27,16,12,8.40
2020,10,27,16,13,8.40
2020,10,27,16,14,8.40
2020,10,27,16,15,8.40
2020,10,27,16,16,8.40
2020,10,27,16,17,8.40
2020,10,27,16,18,8.50
2020,10,27,16,19,8.50
2020,10,27,16,20,8.40
2020,10,27,16,21,8.50
2020,10,27,16,22,8.50
2020,10,27,16,23,8.50
2020,10,27,16,24,8.50
2020,10,27,16,25,8.50
2020,10,27,16,26,8.50
2020,10,27,16,27,8.50
2020,10,27,16,28,8.50
2020,10,27,16,29,8.50
2020,10,27,16,30,8.50
2020,10,27,16,31,8.50
2020,10,27,16,32,8.50
2020,10,27,16,33,8.50
2020,10,27,16,34,8.50
2020,10,27,16,35,8.50
2020,10,27,16,36,8.50
2020,10,27,16,37,8.50
2020,10,27,16,38,8.50
2020,10,27,16,39,8.50
2020,10,27,16,40,8.60
2020,10,27,16,41,8.60
2020,10,27,16,42,8.60
2020,10,27,16,43,8.60
2020,10,27,16,44,8.60
2020,10,27,16,45,8.60
2020,10,27,16,46,8.60
2020,10,27,16,47,8.60
2020,10,27,16,48,8.60
2020,10,27,16,49,8.60
2020,10,27,16,50,8.60
2020,10,27,16,51,8.60
2020,10,27,16,52,8.60
2020,10,27,16,53,8.60
2020,10,27,16,54,8.60
2020,10,27,16,55,8.60
2020,10,27,16,56,8.60
2020,10,27,16,57,8.60
2020,10,27,16,58,8.60
2020,10,27,16,59,8.60
2020,10,27,17,00,8.60
2020,10,27,17,01,8.60
2020,10,27,17,02,8.60
2020,10,27,17,03,8.60
2020,10,27,17,04,8.60
2020,10,27,17,05,8.60
2020,10,27,17,06,8.60
2020,10,27,17,07,8.60
2020,10,27,17,08,8.60
2020,10,27,17,09,8.60
2020,10,27,17,10,8.60
2020,10,27,17,11,8.60
2020,10,27,17,12,8.60
2020,10,27,17,13,8.60
2020,10,27,17,14,8.60
2020,10,27,17,15,8.60
2020,10,27,17,16,8.60
2020,10,27,17,17,8.60
2020,10,27,17,18,8.60
2020,10,27,17,19,8.60
2020,10,27,17,20,8.60
2020,10,27,17,21,8.60
2020,10,27,17,22,8.60
2020,10,27,17,23,8.60
2020,10,27,17,24,8.60
2020,10,27,17,25,8.60
2020,10,27,17,26,8.60
2020,10,27,17,27,8.60
2020,10,27,17,28,8.60
2020,10,27,17,29,8.60
2020,10,27,17,30,8.60
2020,10,27,17,31,8.60
2020,10,27,17,32,8.60
2020,10,27,17,33,8.60
2020,10,27,17,34,8.60
2020,10,27,17,35,8.60
2020,10,27,17,36,8.60
2020,10,27,17,37,8.60
2020,10,27,17,38,8.60
2020,10,27,17,39,8.60
2020,10,27,17,40,8.60
2020,10,27,17,41,8.60
2020,10,27,17,42,8.60
2020,10,27,17,43,8.60
2020,10,27,17,44,8.60
2020,10,27,17,45,8.60
2020,10,27,17,46,8.60
2020,10,27,17,47,8.60
2020,10,27,17,48,8.60
2020,10,27,17,49,8.60
2020,10,27,17,50,8.60
2020,10,27,17,51,8.60
2020,10,27,17,52,8.60
2020,10,27,17,53,8.60
2020,10,27,17,54,8.60
2020,10,27,17,55,8.60
2020,10,27,17,56,8.60
2020,10,27,17,57,8.60
2020,10,27,17,58,8.60
2020,10,27,17,59,8.60
2020,10,27,18,00,8.60
2020,10,27,18,01,8.60
2020,10,27,18,02,8.60
2020,10,27,18,03,8.60
2020,10,27,18,04,8.60
2020,10,27,18,05,8.60
2020,10,27,18,06,8.60
2020,10,27,18,07,8.60
2020,10,27,18,08,8.60
2020,10,27,18,09,8.60
2020,10,27,18,10,8.60
2020,10,27,18,11,8.60
2020,10,27,18,12,8.60
2020,10,27,18,13,8.60
2020,10,27,18,14,8.60
2020,10,27,18,15,8.60
2020,10,27,18,16,8.60
2020,10,27,18,17,8.60
2020,10,27,18,18,8.60
2020,10,27,18,19,8.60
2020,10,27,18,20,8.60
2020,10,27,18,21,8.60
2020,10,27,18,22,8.60
2020,10,27,18,23,8.60
2020,10,27,18,24,8.60
2020,10,27,18,25,8.60
2020,10,27,18,26,8.60
2020,10,27,18,27,8.60
2020,10,27,18,28,8.60
2020,10,27,18,29,8.60
2020,10,27,18,30,8.60
2020,10,27,18,31,8.60
2020,10,27,18,32,8.60
2020,10,27,18,33,8.60
2020,10,27,18,34,8.60
2020,10,27,18,35,8.60
2020,10,27,18,36,8.60
2020,10,27,18,37,8.60
2020,10,27,18,38,8.60
2020,10,27,18,39,8.60
2020,10,27,18,40,8.60
2020,10,27,18,41,8.60
2020,10,27,18,42,8.60
2020,10,27,18,43,8.60
2020,10,27,18,44,8.60
2020,10,27,18,45,8.60
2020,10,27,18,46,8.60
2020,10,27,18,47,8.60
2020,10,27,18,48,8.60
2020,10,27,18,49,8.60
2020,10,27,18,50,8.60
2020,10,27,18,51,8.60
2020,10,27,18,52,8.60
2020,10,27,18,53,8.60
2020,10,27,18,54,8.60
2020,10,27,18,55,8.60
2020,10,27,18,56,8.60
2020,10,27,18,57,8.60
2020,10,27,18,58,8.60
2020,10,27,18,59,8.60
2020,10,27,19,00,8.60
2020,10,27,19,01,8.60
2020,10,27,19,02,8.60
2020,10,27,19,03,8.60
2020,10,27,19,04,8.60
2020,10,27,19,05,8.60
2020,10,27,19,06,8.60
2020,10,27,19,07,8.60
2020,10,27,19,08,8.60
2020,10,27,19,09,8.60
2020,10,27,19,10,8.60
2020,10,27,19,11,8.60
2020,10,27,19,12,8.60
2020,10,27,19,13,8.60
2020,10,27,19,14,8.60
2020,10,27,19,15,8.60
2020,10,27,19,16,8.60
2020,10,27,19,17,8.60
2020,10,27,19,18,8.60
2020,10,27,19,19,8.60
2020,10,27,19,20,8.60
2020,10,27,19,21,8.60
2020,10,27,19,22,8.60
2020,10,27,19,23,8.60
2020,10,27,19,24,8.60
2020,10,27,19,25,8.60
2020,10,27,19,26,8.60
2020,10,27,19,27,8.60
2020,10,27,19,28,8.60
2020,10,27,19,29,8.60
2020,10,27,19,30,8.60
2020,10,27,19,31,8.60
2020,10,27,19,32,8.60
2020,10,27,19,33,8.60
2020,10,27,19,34,8.60
2020,10,27,19,35,8.60
2020,10,27,19,36,8.60
2020,10,27,19,37,8.60
2020,10,27,19,38,8.60
2020,10,27,19,39,8.60
2020,10,27,19,40,8.60
2020,10,27,19,41,8.60
2020,10,27,19,42,8.60
2020,10,27,19,43,8.60
2020,10,27,19,44,8.60
2020,10,27,19,45,8.60
2020,10,27,19,46,8.60
2020,10,27,19,47,8.60
2020,10,27,19,48,8.60
2020,10,27,19,49,8.60
2020,10,27,19,50,8.60
2020,10,27,19,51,8.60
2020,10,27,19,52,8.60
2020,10,27,19,53,8.60
2020,10,27,19,54,8.60
2020,10,27,19,55,8.60
2020,10,27,19,56,8.60
2020,10,27,19,57,8.60
2020,10,27,19,58,8.60
2020,10,27,19,59,8.60
2020,10,27,20,00,8.60
2020,10,27,20,01,8.60
2020,10,27,20,02,8.60
2020,10,27,20,03,8.60
2020,10,27,20,04,8.60
2020,10,27,20,05,8.60
2020,10,27,20,06,8.60
2020,10,27,20,07,8.60
2020,10,27,20,08,8.60
2020,10,27,20,09,8.60
2020,10,27,20,10,8.60
2020,10,27,20,11,8.60
2020,10,27,20,12,8.60
2020,10,27,20,13,8.60
2020,10,27,20,14,8.60
2020,10,27,20,15,8.60
2020,10,27,20,16,8.60
2020,10,27,20,17,8.60
2020,10,27,20,18,8.60
2020,10,27,20,19,8.60
2020,10,27,20,20,8.60
2020,10,27,20,21,8.60
2020,10,27,20,22,8.60
2020,10,27,20,23,8.60
2020,10,27,20,24,8.60
2020,10,27,20,25,8.60
2020,10,27,20,26,8.60
2020,10,27,20,27,8.60
2020,10,27,20,28,8.60
2020,10,27,20,29,8.60
2020,10,27,20,30,8.60
2020,10,27,20,31,8.60
2020,10,27,20,32,8.60
2020,10,27,20,33,8.60
2020,10,27,20,34,8.60
2020,10,27,20,35,8.60
2020,10,27,20,36,8.60
2020,10,27,20,37,8.60
2020,10,27,20,38,8.60
2020,10,27,20,39,8.60
2020,10,27,20,40,8.60
2020,10,27,20,41,8.60
2020,10,27,20,42,8.60
2020,10,27,20,43,8.60
2020,10,27,20,44,8.60
2020,10,27,20,45,8.60
2020,10,27,20,46,8.60
2020,10,27,20,47,8.60
2020,10,27,20,48,8.60
2020,10,27,20,49,8.60
2020,10,27,20,50,8.60
2020,10,27,20,51,8.60
2020,10,27,20,52,8.60
2020,10,27,20,53,8.60
2020,10,27,20,54,8.60
2020,10,27,20,55,8.60
2020,10,27,20,56,8.60
2020,10,27,20,57,8.60
2020,10,27,20,58,8.60
2020,10,27,20,59,8.60
2020,10,27,21,00,8.60
2020,10,27,21,01,8.60
2020,10,27,21,02,8.60
2020,10,27,21,03,8.60
2020,10,27,21,04,8.60
2020,10,27,21,05,8.70
2020,10,27,21,06,8.70
2020,10,27,21,07,8.70
2020,10,27,21,08,8.70
2020,10,27,21,09,8.70
2020,10,27,21,10,8.70
2020,10,27,21,11,8.70
2020,10,27,21,12,8.70
2020,10,27,21,13,8.70
2020,10,27,21,14,8.70
2020,10,27,21,15,8.70
2020,10,27,21,16,8.70
2020,10,27,21,17,8.70
2020,10,27,21,18,8.70
2020,10,27,21,19,8.70
2020,10,27,21,20,8.70
2020,10,27,21,21,8.70
2020,10,27,21,22,8.70
2020,10,27,21,23,8.70
2020,10,27,21,24,8.70
2020,10,27,21,25,8.70
2020,10,27,21,26,8.70
2020,10,27,21,27,8.70
2020,10,27,21,28,8.70
2020,10,27,21,29,8.70
2020,10,27,21,30,8.70
2020,10,27,21,31,8.70
2020,10,27,21,32,8.70
2020,10,27,21,33,8.70
2020,10,27,21,34,8.70
2020,10,27,21,35,8.70
2020,10,27,21,36,8.70
2020,10,27,21,37,8.70
2020,10,27,21,38,8.70
2020,10,27,21,39,8.70
2020,10,27,21,40,8.70
2020,10,27,21,41,8.70
2020,10,27,21,42,8.70
2020,10,27,21,43,8.70
2020,10,27,21,44,8.70
2020,10,27,21,45,8.70
2020,10,27,21,46,8.70
2020,10,27,21,47,8.70
2020,10,27,21,48,8.70
2020,10,27,21,49,8.70
2020,10,27,21,50,8.70
2020,10,27,21,51,8.70
2020,10,27,21,52,8.70
2020,10,27,21,53,8.70
2020,10,27,21,54,8.70
2020,10,27,21,55,8.70
2020,10,27,21,56,8.70
2020,10,27,21,57,8.70
2020,10,27,21,58,8.70
2020,10,27,21,59,8.70
2020,10,27,22,00,8.70
2020,10,27,22,01,8.70
2020,10,27,22,02,8.70
2020,10,27,22,03,8.70